This demonstration page uses our WeatherBlox Daily Observations layout. Learn more.

Left ArrowRight Arrow

34.02893, -84.19858

Hourly Observations for November 29, 2022

Temp ( °F °C ) Dew Point ( °F °C ) Humidity (%) Winds ( mph kmh ) Pressure ( in mb ) Visibility ( mi km ) Precip ( " mm )
12:53 am 00:53 Clear 40 4.4 38 3.3 93 93 Calm 30.08 1019 8 13 0.00 0.00
1:53 am 01:53 Clear 40 4.4 39 3.9 97 97 Calm 30.09 1019 7 11 0.00 0.00
2:53 am 02:53 Clear with Mist and Fog 38 3.3 37 2.8 97 97 Calm 30.09 1019 5 8 0.00 0.00
3:53 am 03:53 Clear with Mist and Fog 38 3.3 37 2.8 97 97 Calm 30.10 1019 6 10 0.00 0.00
4:53 am 04:53 Clear with Mist and Fog 39 3.9 38 3.3 96 96 Calm 30.11 1020 5 8 0.00 0.00
5:53 am 05:53 Clear 40 4.4 38 3.3 93 93 Calm 30.13 1020 10 16 0.00 0.00
6:53 am 06:53 Clear 44 6.7 40 4.4 85 85 Calm 30.16 1021 10 16 0.00 0.00
7:53 am 07:53 Sunny 45 7.2 40 4.4 82 82 VRB 6 9 30.17 1022 10 16 0.00 0.00
8:53 am 08:53 Sunny 49 9.4 41 5 74 74 Calm 30.19 1023 10 16 0.00 0.00
9:53 am 09:53 Sunny 53 11.7 43 6.1 68 68 VRB 5 7 30.20 1023 10 16 0.00 0.00
10:53 am 10:53 Sunny 59 15 43 6.1 55 55 VRB 7 11 30.19 1022 10 16 0.00 0.00
11:53 am 11:53 Sunny 62 16.7 44 6.7 52 52 VRB 6 9 30.16 1022 10 16 0.00 0.00
12:53 pm 12:53 Sunny 64 17.8 46 7.8 52 52 VRB 6 9 30.13 1020 10 16 0.00 0.00
1:53 pm 13:53 Sunny 66 18.9 47 8.3 50 50 SE 6 9 30.08 1019 10 16 0.00 0.00
2:53 pm 14:53 Mostly Sunny 67 19.4 48 8.9 51 51 VRB 6 9 30.06 1018 10 16 0.00 0.00
3:53 pm 15:53 Mostly Cloudy 67 19.4 48 8.9 51 51 undefined N/A 30.04 1017 10 16 0.00 0.00
4:53 pm 16:53 Partly Cloudy 65 18.3 48 8.9 54 54 VRB 6 9 30.02 1017 10 16 0.00 0.00
5:53 pm 17:53 Cloudy 65 18.3 49 9.4 56 56 VRB 6 9 30.03 1017 10 16 0.00 0.00
6:53 pm 18:53 Cloudy 64 17.8 50 10 60 60 ESE 5 7 30.03 1017 10 16 0.00 0.00
7:53 pm 19:53 Cloudy 60 15.6 53 11.7 78 78 ESE 5 7 30.04 1017 10 16 0.01 0.13
8:53 pm 20:53 Cloudy 59 15 54 12.2 83 83 Calm 30.03 1017 10 16 0.01 0.25
9:53 pm 21:53 Cloudy with Light Rain 58 14.4 54 12.2 87 87 undefined N/A 30.04 1017 8 13 0.02 0.51
10:35 pm 22:35 Cloudy with Nearby Thunderstorms 57 13.9 55 12.8 93 93 Calm 30.05 1017 3 4 0.10 2.54
10:46 pm 22:46 Cloudy with Nearby Thunderstorms 56 13.3 56 13.3 100 100 Calm 30.04 1017 2 3 0.19 4.83
10:49 pm 22:49 Cloudy with Nearby Thunderstorms 55 13 55 13 100 100 Calm 30.04 1017 2 3 0.19 4.83
10:53 pm 22:53 Cloudy with Light Rain 57 13.9 55 12.8 93 93 Calm 30.02 1017 4 6 0.20 5.08
11:14 pm 23:14 Cloudy with Light Rain 57 13.9 55 12.8 93 93 ESE 5 7 30.03 1017 4 6 0.02 0.51
11:22 pm 23:22 Cloudy with Light Rain 56 13.3 55 12.8 97 97 VRB 3 6 30.02 1017 4 6 0.03 0.76
11:50 pm 23:50 Cloudy with Light Rain 56 13.3 55 12.8 97 97 ENE 7 11 29.98 1015 7 11 0.04 1.02

Powered by AerisWeather